User: anonymous   Login
Location: Berlin
(38.3226°N, 75.2177°W)
Time: 10:07:45
(UTC+00:00)
Language:

Cosmos 1626 - Orbit

View from above orbital plane
View from above orbital plane
View from above satellite
View from above satellite

Ground track
Ground track

The orbit data is extracted from the following two-line orbital elements,

1 15494U 85009A   21022.91898644  .00000945  00000-0  36989-4 0  9998
2 15494  82.4789  11.0800 0003857 107.6991 252.4667 15.24575868968814
Epoch (UTC): 22 January 2021 22:03:20
Eccentricity: 0.0003857
inclination: 82.4789°
perigee height: 489 km
apogee height: 495 km
right ascension of ascending node: 11.0800°
argument of perigee: 107.6991°
revolutions per day: 15.24575868
mean anomaly at epoch: 252.4667°
orbit number at epoch: 96881

The dashed part of the orbit path shows where the satellite is in the earth's shadow,  

DLR